星链-30700 (STARLINK-30700 )

导读

STARLINK-30700是美国太空探索技术公司SpaceX于北京时间2023年9月25日发射的星链(Starlink)项目卫星,属于星链低轨互联网星座的一员。该卫星运行于近地轨道,为星链全球高速互联网接入服务提供支撑,可服务偏远地区网络覆盖、海事航空通信、应急通信等场景,目前处于在轨运行状态,是星链星座持续扩容过程中部署的卫星之一。

Basic Information
目录编号:
57953
目录名称:
STARLINK-30700
国际标识:
2023-148U
轨道中心:
EARTH
卫星名称:
星链-30700
卫星全名:
星链-30700 (STARLINK-30700 )
卫星状态:
在轨 (已飞行997 天)
发射日期:
2023-09-25 UTC
国别 :
美国 (US)
星等 :
--
Orbit Information
数据来源 国际轨道数据 AOE轨道数据
星历时间 2026-06-17T20:31:56+0800
23小时前
查看轨道信息
2026-06-17T07:00:00+0800
1天前
查看轨道信息
半长轴 6853.384km 6853.327km
偏心率 0.0001122 0.0001914
轨道倾角 53.161° 53.156°
近地点辐角 84.562° 96.841°
升交点赤经 270.498° 273.123°
平近点角 275.551° 35.519°
近地点 474.478km 473.878km
远地点 476.016km 476.502km
周期 94.106分钟 94.105分钟
每日圈数 15.301894 15.302086
Detailed Information
固有亮度:
5
最大亮度:
0.3
卫星平台:
Starlink v2.0 mini
覆盖范围:
全球
运营商:
太空探索技术公司
运营商所在国:
美国
制造商(研发单位):
太空探索技术公司
制造商所在国:
美国
使用方式:
暂无
Satellite Introduction
星链(Starlink)计划是由太空探索技术公司(SpaceX)提出的一个巨型低轨卫星互联网星座项目,计划在2019年至2024年间在太空搭建由约1.2万颗卫星组成的“星链”网络,其中1584颗将部署在地球上空550千米处的近地轨道,并从2020年开始工作。该卫星仍在工作。
2D Orbit Map
3D Orbit Map
Orbit Altitude Analysis Chart
Orbit Inclination Analysis Chart
Orbit Comprehensive Analysis Chart
View Comprehensive Chart